Regional Weather Roundup
Issued by NWS

Home | Current Version | Previous Version | Text Only | Print | Product List | Glossary Off
Versions: 1 2 3 4 5 6 7 8 9 10 11 12 13 14 15 16 17 18 19 20 21 22 23 24 25 26 27 28 29 30 31 32 33 34 35 36 37 38 39 40 41 42 43 44 45 46 47 48 49 50

900
ASUS45 KCYS 240010
RWRWY

WYOMING REGIONAL WEATHER ROUNDUP
NATIONAL WEATHER SERVICE CHEYENNE WY
500 PM MST FRI FEB 23 2018

NOTE:  "FAIR" INDICATES FEW OR NO CLOUDS BELOW 12,000 FEET
WITH NO SIGNIFICANT WEATHER AND/OR OBSTRUCTIONS TO VISIBILITY.

WYZ001-240100-
YELLOWSTONE NATIONAL PARK

CITY           SKY/WX    TMP DP  RH WIND       PRES   REMARKS
LK YELLOWSTONE NOT AVBL
W YELLOWSTONE  NOT AVBL

$$
WYZ002>013-054>058-071-098>099-240100-
NORTHERN WYOMING

CITY           SKY/WX    TMP DP  RH WIND       PRES   REMARKS
JACKSON        FAIR      21   7  54 S9        29.91F WCI  11
CODY           FAIR      16   7  67 N5        29.90F WCI   9
GREYBULL       FAIR      15   5  64 CALM      29.98F
6HR MIN TEMP:  -2; 6HR MAX TEMP:  16;

WORLAND        FAIR      18   4  54 CALM      29.96F
6HR MIN TEMP:   3; 6HR MAX TEMP:  21; 6HR PCP: TRACE;

SHERIDAN       FAIR      11   2  67 CALM      29.95F
6HR MIN TEMP:   8; 6HR MAX TEMP:  15;

BUFFALO        FAIR      19   7  59 CALM      29.89F
6HR MIN TEMP:  10; 6HR MAX TEMP:  21;

GILLETTE       FAIR      19   9  65 S20       29.92F WCI   3
6HR MIN TEMP:  17; 6HR MAX TEMP:  23;

HULETT         FAIR      25   5  42 MISG      29.97S
NEWCASTLE      FAIR      12   0  57 SE8       30.03F WCI   1

$$
WYZ014>020-022>026-101>103-240100-
CENTRAL WYOMING

CITY           SKY/WX    TMP DP  RH WIND       PRES   REMARKS
BIG PINEY      FAIR      22   7  52 NW9       29.87S WCI  12
6HR MIN TEMP:  18; 6HR MAX TEMP:  26;

PINEDALE       FAIR      19   5  53 NW13      29.87S WCI   7
DUBOIS           N/A    N/A N/A N/A MISG        N/A
LANDER         FAIR      18   7  62 CALM      29.90S
6HR MIN TEMP:  13; 6HR MAX TEMP:  19;

RIVERTON       FAIR      15   2  56 CALM      29.92S
6HR MIN TEMP:   7; 6HR MAX TEMP:  17;

CASPER         LGT SNOW  17  10  74 MISG      29.92F
6HR MIN TEMP:   7; 6HR MAX TEMP:  19; 6HR PCP: TRACE;

DOUGLAS        CLOUDY    19  13  77 SE5       29.94F WCI  12
6HR MIN TEMP:   2; 6HR MAX TEMP:  20;


$$
WYZ021-027>030-104>119-240100-
SOUTHERN WYOMING

CITY           SKY/WX    TMP DP  RH WIND       PRES   REMARKS
EVANSTON       LGT SNOW  15  11  83 SW5       29.93R FOG     WCI   8
6HR MIN TEMP:  12; 6HR MAX TEMP:  16; 6HR PCP: TRACE;

ROCK SPRINGS   SNOW      13   9  84 SW20      29.87R VSB 1/2 WCI  -5
6HR MIN TEMP:  13; 6HR MAX TEMP:  21; 6HR PCP: TRACE;

DIXON          CLOUDY    28  17  63 W10G16    29.87R WCI  19
RAWLINS        FOG       21  17  84 NE5       29.84F VSB 1/2 WCI  15
6HR MIN TEMP:  16; 6HR MAX TEMP:  24;

SARATOGA       FAIR      23  18  80 NE6       29.83F WCI  16
LARAMIE        FAIR      19  15  84 SE20      29.81S WCI   3
6HR MIN TEMP:  19; 6HR MAX TEMP:  26; 6HR PCP: TRACE;

CHEYENNE       FAIR      23  18  81 S6        29.91F HAZE    WCI  16
6HR MIN TEMP:  22; 6HR MAX TEMP:  27;

TORRINGTON     FAIR      26  15  63 SE15      30.00S WCI  14
6HR MIN TEMP:  25; 6HR MAX TEMP:  33;

PINE BLUFFS    CLOUDY    27  19  74 E5        29.97S WCI  21

$$




USA.gov is the U.S. government's official web portal to all federal, state and local government web resources and services.